Hourly Data Report for July 28, 2003

SHERBROOKE A
QUEBEC

45°26'00.000" N
71°41'00.000" W
241.40 m
7028124
71610
YSC

Download Data

Hourly Data (July 2003)
Hourly Data Report for July 28, 2003
TIME
LST
Temp Definition
°C
Dew Point Definition
°C
Rel Hum Definition
%
Precip. Amount Definition
mm

Wind Dir Definition
10's deg

Wind Spd Definition
km/h
Visibility Definition
km
Stn Press Definition
kPa
Hmdx Definition


Wind Chill Definition


Weather Definition


00:00 13.0 11.2 89   27 7 15.0 97.76      
01:00 13.2 10.9 86   27 15 15.0 97.76      
02:00 12.3 9.7 84   25 9 15.0 97.73      
03:00 11.4 9.3 87   23 9 15.0 97.75      
04:00 12.4 9.7 84   25 9 15.0 97.80      
05:00 12.9 10.0 83   24 13 15.0 97.84      
06:00 12.8 10.1 84   26 13 15.0 97.87      
07:00 13.7 10.8 83   26 15 24.1 97.89     Mostly Cloudy
08:00 15.2 11.6 79   25 9 24.1 97.87     Mostly Cloudy
09:00 16.5 11.1 70   27 22 24.1 97.87     Mostly Cloudy
10:00 16.9 11.9 72   28 15 24.1 97.91     Cloudy
11:00 16.6 11.0 69   27 26 24.1 97.94     Mostly Cloudy
12:00 17.4 11.3 67   29 30 24.1 97.97     Cloudy
13:00 16.4 10.9 70   29 19 24.1 98.00     Cloudy
14:00 17.8 11.9 68   27 15 24.1 98.02     Cloudy
15:00 18.1 11.3 64   28 20 24.1 98.02     Mostly Cloudy
16:00 17.4 11.6 69   26 15 24.1 98.02     Cloudy
17:00 17.3 12.4 73   26 11 15.0 98.02     Rain
18:00 17.3 13.0 76   27 11 15.0 98.06      
19:00 16.8 12.3 75   27 13 15.0 98.11      
20:00 13.1 11.1 88   26 4 15.0 98.18      
21:00 11.4 10.4 94   22 6 15.0 98.23      
22:00 14.2 11.8 85   24 6 15.0 98.22      
23:00 13.4 11.9 91   27 4 15.0 98.23      

Notes on Data Quality.

Legend

  • E = Estimated
  • M = Missing
  • NA = Not Available*
  • [empty] = Indicates an unobserved value
Date modified: